Location: ??????
(36.0418°N, 43.6351°E)
Time: 21:53:02
(UTC+00:00)

Cosmos 1140 Rocket - Pass Details

Date: 07 March 2021
Orbit: 745 x 766 km, 74.1° (Epoch: 18 April)

Event Time Altitude Azimuth Distance (km) Brightness Sun altitude
Rises 02:40:02 0° 213° (SSW) 3,211 6.4 -10.4°
Reaches altitude 10° 02:42:30 10° 220° (SW) 2,287 5.6 -9.9°
Maximum altitude 02:47:26 43° 292° (WNW) 1,054 3.8 -8.9°
Drops below altitude 10° 02:52:22 10° 4° (N) 2,287 6.0 -8.0°
Sets 02:54:51 0° 11° (N) 3,212 6.9 -7.4°
